Weather History for KESN - March, 2013

Change the Weather History Date:

Wednesday, March 6, 2013

  Actual Average Record
Temperature  
Mean Temperature 36 °F -  
Max Temperature 39 °F 56 °F 79 °F (1961)
Min Temperature 33 °F 35 °F 14 °F (2015)
Degree Days  
Heating Degree Days 29    
Moisture  
Dew Point 36 °F    
Average Humidity 97    
Maximum Humidity 100    
Minimum Humidity 71    
Precipitation  
Precipitation 0.22 in - - ()
Sea Level Pressure  
Sea Level Pressure 29.74 in    
Wind  
Wind Speed 17 mph (ENE)    
Max Wind Speed 29 mph    
Max Gust Speed 44 mph    
Visibility 6 miles    
Events Rain , Snow    
Averages and records for this station are not official NWS values.
T = Trace of Precipitation, MM = Missing Value Source: NWS Daily Summary

Daily Weather History Graph

Daily Weather History Graph

Search for Another Location

Airport or City:

Trip Planner

Search our weather history database for the weather conditions in past years. The results will help you decide how hot, cold, wet, or windy it might be!

Date:

Astronomy

Mar. 06, 2013 Rise Set
Actual Time 6:28 AM EST 6:02 PM EST
Civil Twilight 6:02 AM EST 6:29 PM EST
Nautical Twilight 5:31 AM EST 6:59 PM EST
Astronomical Twilight 5:00 AM EST 7:30 PM EST
Moon 2:33 AM EST (3/6) 12:44 PM EST (3/6)
Length of Visible Light 12h 26m
Length of Day
11h 33m
Waning Crescent, 30% of the Moon is Illuminated
Mar 6
Waning Crescent
Mar 11
New
Mar 19
First Quarter
Mar 27
Full
Apr 3
Last Quarter

Hourly Weather History & Observations

Time (EST) Temp. Windchill Dew Point Humidity Pressure Visibility Wind Dir Wind Speed Gust Speed Precip Events Conditions
12:07 AM 37.6 °F 29.6 °F 28.9 °F 71% 29.86 in 10.0 mi East 12.7 mph 18.4 mph N/A   Clear
12:27 AM 37.4 °F 29.8 °F 30.7 °F 77% 29.86 in 10.0 mi East 11.5 mph 18.4 mph N/A   Scattered Clouds
12:47 AM 36.1 °F 26.5 °F 32.7 °F 87% 29.86 in 7.0 mi East 16.1 mph - N/A Rain Rain
1:07 AM 34.5 °F 26.2 °F 34.0 °F 98% 29.85 in 4.0 mi ESE 11.5 mph - N/A Rain Rain
1:27 AM 33.8 °F 25.8 °F 33.8 °F 100% 29.83 in 3.0 mi East 10.4 mph - 0.03 in   Overcast
1:47 AM 33.4 °F 25.4 °F 33.4 °F 100% 29.81 in 3.0 mi East 10.4 mph - 0.06 in Snow Light Snow
2:08 AM 33.8 °F 24.3 °F 33.8 °F 100% 29.77 in 5.0 mi East 13.8 mph 19.6 mph N/A Rain Light Rain
2:28 AM 34.9 °F 25.3 °F 34.9 °F 100% 29.77 in 7.0 mi East 15.0 mph 19.6 mph 0.01 in Rain Light Rain
2:48 AM 35.6 °F 27.5 °F 35.6 °F 100% 29.76 in 7.0 mi East 11.5 mph 18.4 mph 0.01 in Rain Light Rain
3:08 AM 36.0 °F 26.7 °F 36.0 °F 100% 29.73 in 7.0 mi East 15.0 mph 23.0 mph N/A Rain Light Rain
3:28 AM 36.5 °F 26.7 °F 36.5 °F 100% 29.72 in 5.0 mi East 17.3 mph 26.5 mph 0.04 in Rain Rain
3:48 AM 36.5 °F 26.3 °F 36.5 °F 100% 29.69 in 10.0 mi East 18.4 mph 26.5 mph 0.06 in Rain Light Rain
4:08 AM 36.9 °F 27.1 °F 36.9 °F 100% 29.69 in 7.0 mi East 17.3 mph 26.5 mph 0.01 in Rain Light Rain
4:28 AM 36.9 °F 26.8 °F 36.9 °F 100% 29.69 in 5.0 mi ESE 18.4 mph 26.5 mph 0.03 in Rain Light Rain
4:48 AM 37.0 °F 27.4 °F 37.0 °F 100% 29.69 in 5.0 mi East 17.3 mph 25.3 mph 0.04 in Rain Light Rain
5:08 AM 37.4 °F 28.9 °F 37.4 °F 100% 29.67 in 7.0 mi East 13.8 mph 23.0 mph N/A Rain Light Rain
5:28 AM 38.3 °F 28.1 °F 38.3 °F 100% 29.67 in 10.0 mi East 20.7 mph 36.8 mph N/A Rain Light Rain
5:48 AM 38.3 °F 28.4 °F 38.3 °F 100% 29.66 in 7.0 mi East 19.6 mph 32.2 mph 0.02 in Rain Light Rain
5:50 AM 39.2 °F 29.8 °F 39.2 °F 100% 29.66 in 5.0 mi East 18.4 mph 32.2 mph N/A Rain Light Rain
6:08 AM 38.3 °F 27.8 °F 38.3 °F 100% 29.65 in 7.0 mi East 21.9 mph 36.8 mph N/A Rain Light Rain
6:28 AM 38.3 °F 28.4 °F 38.3 °F 100% 29.64 in 7.0 mi East 19.6 mph 27.6 mph 0.02 in Rain Light Rain
6:41 AM 38.3 °F 28.7 °F 38.3 °F 100% 29.64 in 4.0 mi East 18.4 mph 35.7 mph 0.03 in Rain Light Rain
6:53 AM 39.2 °F 29.0 °F 39.2 °F 100% 29.63 in 3.0 mi East 21.9 mph 29.9 mph N/A Rain Light Rain
7:53 AM 39.2 °F 28.7 °F 39.2 °F 100% 29.61 in 4.0 mi East 23.0 mph 34.5 mph N/A Rain Light Rain
8:53 AM 39.2 °F 28.3 °F 39.2 °F 100% 29.58 in 3.0 mi ENE 25.3 mph 38.0 mph N/A Rain Light Rain
9:53 AM 39.2 °F 28.0 °F 39.2 °F 100% 29.58 in 4.0 mi ENE 26.5 mph 41.4 mph N/A Rain Rain
10:53 AM 37.4 °F 25.2 °F 37.4 °F 100% 29.58 in 2.5 mi NE 28.8 mph 39.1 mph N/A Rain Rain
11:53 AM 37.4 °F 25.2 °F 37.4 °F 100% 29.57 in 2.5 mi NE 28.8 mph 40.3 mph N/A Rain Light Rain
12:53 PM 37.4 °F 25.2 °F 37.4 °F 100% 29.58 in 2.0 mi NE 28.8 mph 43.7 mph N/A Rain Rain
1:53 PM 37.4 °F 25.6 °F 37.4 °F 100% 29.59 in 4.0 mi NE 26.5 mph 41.4 mph N/A Rain Light Rain
2:53 PM 37.4 °F 25.6 °F 37.4 °F 100% 29.63 in 3.0 mi NNE 26.5 mph 38.0 mph N/A Rain Light Rain
3:53 PM 37.4 °F 25.9 °F 37.4 °F 100% 29.67 in 2.0 mi NNE 25.3 mph 36.8 mph N/A Rain Rain
4:49 PM 37.4 °F 25.9 °F 37.4 °F 100% 29.72 in 4.0 mi NNE 25.3 mph 35.7 mph N/A Rain Light Rain
5:46 PM 37.4 °F 25.6 °F 37.4 °F 100% 29.78 in 4.0 mi NNE 26.5 mph 41.4 mph N/A Rain Light Rain
6:57 PM 37.4 °F 28.2 °F 37.4 °F 100% 29.84 in 5.0 mi North 16.1 mph 28.8 mph N/A   Drizzle
8:46 PM 37.4 °F 27.8 °F 37.4 °F 100% 29.90 in 5.0 mi North 17.3 mph 34.5 mph N/A Rain Light Rain
9:50 PM 36.7 °F 27.6 °F 36.1 °F 98% 29.93 in 10.0 mi NNE 15.0 mph 28.8 mph N/A   Drizzle
10:10 PM 36.9 °F 27.1 °F 36.1 °F 97% 29.93 in 10.0 mi North 17.3 mph 25.3 mph N/A   Light Drizzle
10:30 PM 37.2 °F 28.3 °F 35.8 °F 95% 29.93 in 10.0 mi NNE 15.0 mph 23.0 mph N/A   Light Drizzle
10:50 PM 37.8 °F 29.0 °F 34.9 °F 89% 29.93 in 10.0 mi NNE 15.0 mph 21.9 mph N/A   Clear
11:10 PM 38.3 °F 30.1 °F 34.0 °F 84% 29.93 in 10.0 mi NNE 13.8 mph 23.0 mph N/A   Clear
11:30 PM 38.5 °F 29.2 °F 33.1 °F 81% 29.94 in 10.0 mi NNE 17.3 mph 25.3 mph N/A   Scattered Clouds
11:50 PM 38.5 °F 29.6 °F 32.7 °F 80% 29.94 in 10.0 mi NNE 16.1 mph 26.5 mph N/A   Scattered Clouds